Regional Weather Roundup
Issued by NWS

Home | Current Version | Previous Version | Graphics & Text | Print | Product List | Glossary On
Versions: 1 2 3 4 5 6 7 8 9 10 11 12 13 14 15 16 17 18 19 20 21 22 23 24 25 26 27 28 29 30 31 32 33 34 35 36 37 38 39 40 41 42 43 44 45 46 47 48 49 50
000
ASUS43 KMPX 211810
RWRMN
WEATHER ROUNDUP FOR MINNESOTA
NATIONAL WEATHER SERVICE TWIN CITIES/CHANHASSEN MN
1200 PM CST SUN JAN 21 2018


NOTE: "FAIR" INDICATES FEW OR NO CLOUDS BELOW 12,000 FEET WITH NO
SIGNIFICANT WEATHER AND/OR OBSTRUCTIONS TO VISIBILITY. N/A MEANS
CURRENT SKY AND/OR WEATHER CONDITIONS ARE NOT AVAILABLE.

MNZ060>063-068>070-211900-
   Twin Cities Metro

CITY           SKY/WX    TMP DP  RH WIND       PRES   REMARKS
TWIN CITIES    CLOUDY    38  31  76 N6        29.96F
6HR MIN TEMP:  34; 6HR MAX TEMP:  38;

ST PAUL        CLOUDY    38  30  73 N3        29.97F
CRYSTAL        CLOUDY    37  27  67 N7        29.96F
BLAINE         CLOUDY    37  30  75 CALM      29.96F
LAKEVILLE      PTSUNNY   36  30  80 NE3       29.95F
EDEN PRAIRIE   CLOUDY    39  29  67 NE6       29.94F
6HR MIN TEMP:  35; 6HR MAX TEMP:  39;

SOUTH ST PAUL  CLOUDY    38  29  70 N5        29.95F
LAKE ELMO      FAIR      37  32  81 CALM      29.97F
$$
MNZ001>005-007-008-013>017-022>024-027-028-211900-
   Northwest Minnesota

CITY           SKY/WX    TMP DP  RH WIND       PRES   REMARKS
BEMIDJI        CLOUDY    22  21  96 N3        30.02F FOG
HALLOCK        CLOUDY    21  21 100 N3        30.10R
ROSEAU         CLOUDY    25  19  80 NE3       30.07S
WARROAD        CLOUDY    25  21  86 NW5       30.07S WCI  19
THIEF RVR FALL CLOUDY    25  24  96 N5        30.08S WCI  19
CROOKSTON      FAIR      21  21 100 N3        30.11S
FOSSTON        PTSUNNY   21  21 100 CALM      30.06F FOG
DETROIT LAKES  FAIR      25  23  93 NW5       30.03S WCI  19
MOORHEAD       PTSUNNY   21  19  93 N8        30.08S FOG     WCI  12
PARK RAPIDS    FAIR      28  26  92 CALM      30.00S
MAHNOMEN       CLOUDY    25  24  96 N5        30.04F WCI  19
$$
MNZ006-009>011-018-025>026-211900-
   North Central Minnesota

CITY           SKY/WX    TMP DP  RH WIND       PRES   REMARKS
BAUDETTE       CLOUDY    25  24  96 NW9       30.04R FOG     WCI  15
FLAG ISLAND    CLOUDY    23  21  93 NW6       30.05F WCI  16
INTL FALLS     CLOUDY    23  20  88 CALM      30.03S FOG
6HR MIN TEMP:   8; 6HR MAX TEMP:  24;

WASKISH        FOG       21  19  93 CALM      30.05R VSB 1/2
BIG FORK       CLOUDY    23  21  93 CALM      30.02S FOG
LONGVILLE      FAIR      27  25  93 CALM      30.01F
GRAND RAPIDS   FAIR      28  27  96 CALM      30.02S FOG
CRANE LAKE     CLOUDY    21  19  93 CALM      30.05S FOG
ORR            CLOUDY    21  19  93 CALM      29.99S FOG
COOK           CLOUDY    21  21 100 CALM      30.02R FOG
WALKER         FAIR      27  26  96 N5        30.00F WCI  21
$$
MNZ012-019>021-037-211900-
   Northeast Minnesota

CITY           SKY/WX    TMP DP  RH WIND       PRES   REMARKS
DULUTH         FAIR      32  26  78 CALM      29.96F
6HR MIN TEMP:  23; 6HR MAX TEMP:  32;

ELY            CLOUDY    25  25 100 CALM      29.99F FOG
HIBBING        FAIR      24  23  96 CALM      29.98F
EVELETH        FAIR      20  17  88 CALM      29.99F
DULUTH HARBOR  CLOUDY    30  28  93 CALM      30.01F FOG
TWO HARBORS    FAIR      43  32  65 CALM      29.96F
SILVER BAY     FAIR      34  28  80 CALM      29.96F
GRAND MARAIS     N/A     29  28  96 E5        30.02S WCI  24
G MARAIS ARPRT FAIR      30  25  80 CALM      29.95F
$$
MNZ029>031-032-039>041-046>048-054>057-064-211900-
   West Central Minnesota

CITY           SKY/WX    TMP DP  RH WIND       PRES   REMARKS
FERGUS FALLS   FAIR      30  27  86 N6        30.02F WCI  24
WHEATON        CLOUDY    28  25  86 NW6       30.06S WCI  22
MORRIS         CLOUDY    30  28  93 NW8       30.01S WCI  23
ALEXANDRIA     CLOUDY    34  28  79 N3        29.99F
ELBOW LAKE     FAIR      31  28  90 N5        30.02S WCI  26
WADENA         FAIR      28  28 100 CALM      30.00F
GLENWOOD       FAIR      34  30  86 CALM      30.00S
APPLETON       CLOUDY    34  28  80 NW8       30.01F WCI  27
BENSON         CLOUDY    36  30  80 N3        30.03R
ORTONVILLE     CLOUDY    30  27  86 NW9       30.02F WCI  22
MADISON        LGT SNOW  36  30  80 NW9       30.02S
WILLMAR        FAIR      36  30  80 N7        30.01S
$$
MNZ033>034-036-042>043-049>051-058-059-211900-
   Central Minnesota

CITY           SKY/WX    TMP DP  RH WIND       PRES   REMARKS
ST CLOUD       CLOUDY    36  29  75 N3        29.99S
6HR MIN TEMP:  30; 6HR MAX TEMP:  36;

SAUK CENTRE      N/A     33  28  83 N5        29.99F WCI  28
PAYNESVILLE    CLOUDY    35  31  86 NE3       29.99F
AITKIN         FAIR      28  25  86 CALM      29.99S
PINE RIVER     FAIR      25  25 100 N5        30.04S WCI  19
BRAINERD       FAIR      32  26  78 CALM      30.00F
STAPLES        FAIR      28  28 100 CALM      30.00S
LONG PRAIRIE   FAIR      32  30  93 NW3       30.00S
LITTLE FALLS   CLOUDY    32  25  74 N3        30.00F
LITCHFIELD     CLOUDY    36  30  80 NE5       29.98S
BUFFALO        CLOUDY    35  28  78 N3        29.98F
MAPLE LAKE     CLOUDY    36  31  82 MISG      29.98F
HUTCHINSON     CLOUDY    37  31  80 N3        29.98S
$$
MNZ037-044-045-052-053-211900-
   East Central Minnesota

CITY           SKY/WX    TMP DP  RH WIND       PRES   REMARKS
PRINCETON      FAIR      36  28  75 N3        29.99S
MORA           FAIR      34  27  75 NE3       30.00F
CAMBRIDGE        N/A     36  27  69 CALM      29.99F
RUSH CITY      CLOUDY    34  28  77 N3        29.99F
MOOSE LAKE     PTSUNNY   34  28  80 CALM      29.97F
CLOQUET        FAIR      30  25  80 CALM      29.97F
MCGREGOR       FAIR      32  28  86 CALM      30.00S
$$
MNZ071>073-080-081-089-090-097-098-211900-
   Southwest Minnesota

CITY           SKY/WX    TMP DP  RH WIND       PRES   REMARKS
MONTEVIDEO     FLURRIES  34  30  86 N12       30.00S WCI  25
GRANITE FALLS  CLOUDY    37  32  81 NW7       30.00F
CANBY          CLOUDY    35  29  80 NW7       30.01F WCI  29
MARSHALL       CLOUDY    36  30  79 N10       29.98F
REDWOOD FALLS  CLOUDY    38  30  73 NE7       29.97S
OLIVIA         CLOUDY    36  32  87 CALM      29.98S
PIPESTONE      CLOUDY    36  30  80 NE7       29.94S
WINDOM         CLOUDY    39  21  48 N8        29.94F
WORTHINGTON    CLOUDY    37  31  78 N13       29.93F
JACKSON        CLOUDY    36  32  87 NE12      29.92F
TRACY          CLOUDY    38  32  78 NE7       29.96F
SLAYTON        CLOUDY    37  30  77 NE8       29.95S
$$
MNZ065>067-074>077-082>085-091>093-211900-
   South Central Minnesota

CITY           SKY/WX    TMP DP  RH WIND       PRES   REMARKS
MANKATO        PTSUNNY   40  31  70 NE7       29.94F
NEW ULM        CLOUDY    39  28  65 NE6       29.95F
ST JAMES       CLOUDY    39  30  70 N5        29.95F
FAIRMONT       CLOUDY    36  31  82 NE7       29.93F
FARIBAULT      FAIR      39  30  70 NE3       29.93F
OWATONNA       FAIR      37  32  81 E8        29.92F
WASECA         FAIR      36  32  87 N7        29.94S
ALBERT LEA     FAIR      36  32  87 NE6       29.90F FOG
$$
MNZ078>079-086>088-094>096-211900-
   Southeast Minnesota

CITY           SKY/WX    TMP DP  RH WIND       PRES   REMARKS
ROCHESTER      FAIR      36  32  85 NE7       29.91F FOG
6HR MIN TEMP:  26; 6HR MAX TEMP:  36; 6HR PCP: TRACE;

RED WING       CLOUDY    37  28  70 CALM      29.94F
STANTON        FAIR      36  32  85 N6        29.93F
DODGE CENTER   FAIR      36  30  80 NE7       29.91F
WINONA         FAIR      32  32 100 CALM      29.93F
AUSTIN         FAIR      37  30  75 E8        29.90F
PRESTON        FAIR      36  31  82 N6        29.91F
$$
ABBREVIATIONS USED IN REMARKS
   TC - TEMPERATURES IN CELSIUS
  WCI - WIND CHILL INDEX
   HX - HEAT INDEX
  VSB - VISIBILITY
$$




USA.gov is the U.S. government's official web portal to all federal, state and local government web resources and services.